Starlink 3934

operational
NORAD ID: 52675 Int'l Des: 2022-053 Owner: SPXS Country: US Constellation: starlink
LEOCIRCULAR

About Starlink 3934

Description loading...

Live Position

Loading 3D Globe...

Upcoming Passes

Altitude History

Altitude vs Time

uPlot chart will show altitude changes over time

Two-Line Element Set

1 52675U 22053V 25303.40528652 .00000121 00000-0 25685-4 0 9996
2 52675 53.2187 8.9850 0001556 103.1584 256.9582 15.08837689191500
Epoch: Oct 30, 2025 • Age: 21 hours

Current Status

Altitude 541.3 km
Velocity 7.59 km/s
Sub-Earth Point -2.49°S, 132.25°W
Launch Date May 18, 2022
Age 3.4 years
Type internet

Technical Details

Classification Payload
Mass 297.00 kg
Dry Mass 275.00 kg
Total Mass 297.00 kg
Length 0.20 m
Diameter 2.80 m
Span 9.00 m
Shape Box + pan
Manufacturer SPXS
Bus Type Starlink
Phase Status In Orbit
Owner/State SPXS/US

Large Constellations

Loading constellations...